Weather in Arlagul

Russia / Kurgan Oblast     55°30′29″N   66°20′39″E
temp.,
°C
wind,
m/s
gust,
m/s
humid.,
%
clouds,
%
prec.,
mm/h
press.,
hPa
HPBL,
m
29 july, thu
thu2923:00+10nw35715 0.0 101084
02:00+9w34825 0.0 101159
05:00+7w35785 0.0 101174
08:00+13w466078 0.0 1011397
11:00+17w574899 0.0 10111934
14:00+18w5844100 0.0 10101988
17:00+18wsw5852100 0.0 10101311
20:00+16wsw335998 0.0 100951
30 july, fri
fri3023:00+13sw48667 0.0 101098
02:00+13sw5136561 0.0 1010223
05:00+11wsw487094 0.0 1010121
08:00+17sw51058100 0.0 1010343
11:00+20sw6950100 0.0 1009663
14:00+24sw71041100 0.0 10082105
17:00+21sw71154100 0.0 1006868
20:00+15ssw41192100 4.3 1006490
31 july, sat
sat3123:00+15sw61491100 4.6 1006457
02:00+14sw499416 0.0 1006239
05:00+14w3895100 0.0 1006207
08:00+19w47820 0.0 1007473
11:00+23w686336 0.0 10081377
14:00+26wnw6848100 0.0 10082107
17:00+23wsw4865100 0.0 1009304
20:00+22wsw2269100 0.0 100923
1 august, sun
sun123:00+20ssw2268100 0.0 100920
02:00+19ssw366798 0.0 1008106
05:00+18ssw41172100 0.0 1008199
08:00+22ssw5107196 0.1 1007418
11:00+26wsw575997 0.3 10071074
14:00+20wnw2489100 0.8 1007127
17:00+25w58620 0.8 10071178
20:00+22wnw376774 0.0 1007181
2 august, mon
mon223:00+19w48770 0.0 1008143
02:00+17wnw33804 0.0 100845
05:00+17wnw467360 0.0 1009114
08:00+20wnw476795 0.0 1010303
11:00+24wnw69495 0.0 10101495
14:00+26wnw684214 0.0 10102263
17:00+27w684142 0.0 10102347
20:00+22w4105987 0.0 1010178